Flag for Germany Weather past 2 weeks in Kaufbeuren, Bavaria, Germany

Now
43 °F

Partly cloudy.


Feels Like: 37 °F
Forecast: 44 / 49 °F
Wind: 9 mph from Southwest

Location: Altenstadt Airport

Current Time: Dec 18, 2014 at 8:40:01 AM

Latest Report: Dec 18, 2014 at 7:20 AM


Visibility: N/A

Pressure: 30.04 "Hg

Humidity: 87%

Dew point: 39 °F

Location of KaufbeurenLocation

Historic Weather in Kaufbeuren — Graph

°F

Kaufbeuren temperature yesterday

Maximum temperature yesterday: 39 °F (at 11:20 AM)
Minimum temperature yesterday: 32 °F (at 6:20 AM)
Average temperature yesterday: 37 °F

Past Weeks' High & Low Weather Summary

 TemperatureHumidityPressure
High50 °F (Dec 13, 2:20 PM)100% (Dec 3, 7:20 AM)30.36 "Hg (Dec 3, 7:20 AM)
Low21 °F (Dec 10, 6:20 AM)50% (Dec 13, 2:20 PM)29.77 "Hg (Dec 12, 10:20 PM)
Average36 °F88%30.02 "Hg
* Reported Dec 3 7:20 AM — Dec 18 7:20 AM, Kaufbeuren, Weather by CustomWeather, © 2014

Note: Actual official high and low records may vary slightly from our data, if they occured in-between our weather recording intervals... More about our weather records

Advertising

Kaufbeuren weather history for previous 24 hours

 ConditionsComfort  
Time TempWeatherWind HumidityBarometerVisibility
7:20 AM
Dec 18
43 °FPartly cloudy.9 mph87%30.04 "HgN/A
6:20 AM41 °FPassing clouds.13 mph93%30.04 "HgN/A
5:20 AM43 °FPassing clouds.16 mph87%30.01 "HgN/A
4:20 AM43 °FQuite cool.17 mph87%30.01 "HgN/A
3:20 AM43 °FQuite cool.20 mph87%30.01 "HgN/A
2:20 AM41 °FQuite cool.18 mph93%30.01 "HgN/A
1:20 AM41 °FQuite cool.21 mph87%29.98 "HgN/A
12:20 AM41 °FQuite cool.23 mph87%29.95 "HgN/A
11:20 PM
Dec 17
39 °FChilly.24 mph93%29.95 "HgN/A
10:20 PM39 °FChilly.23 mph93%29.92 "HgN/A
9:20 PM37 °FChilly.22 mph93%29.89 "HgN/A
8:20 PM37 °FLight rain. Mostly cloudy.22 mph93%29.89 "Hg4 mi
7:20 PM37 °FLight rain. Mostly cloudy.21 mph93%29.86 "Hg4 mi
6:20 PM37 °FLight rain. Mostly cloudy.14 mph93%29.83 "Hg5 mi
5:20 PM36 °FLight rain. Mostly cloudy.10 mph100%29.83 "HgN/A
4:20 PM37 °FLight rain. More clouds than sun.14 mph93%29.80 "HgN/A
3:20 PM39 °FLight rain. Partly sunny.10 mph87%29.80 "HgN/A
2:20 PM39 °FMostly cloudy.12 mph87%29.80 "HgN/A
1:20 PM39 °FOvercast.9 mph87%29.83 "HgN/A
12:20 PM39 °FPartly sunny.12 mph87%29.86 "HgN/A
11:20 AM39 °FPartly sunny.13 mph87%29.89 "HgN/A
10:20 AM36 °FBroken clouds.5 mph93%29.92 "HgN/A
9:20 AM32 °FPartly sunny.2 mph100%29.92 "HgN/A
8:20 AM32 °FBroken clouds.2 mph100%29.95 "HgN/A
Weather by CustomWeather, © 2014

See weather overviewHow to use our weather pages